{"data":{"norad_id":53294,"intl_designator":"2022-086BE","name":"STARLINK-4146","alt_names":[],"object_type":"PAYLOAD","status":"ACTIVE","operator":null,"country":"US","launch_date":"2022-07-24","launch_site_code":"AFETR","launch_vehicle":null,"mission":null,"orbit_class":"UNKNOWN","rcs_meters":null,"size_class":null,"mass_kg":null,"dimensions":null,"purposes":["comms"],"wikipedia_slug":null,"has_3d_model":false,"image_url":null,"decayed_at":null,"tle_current":{"epoch":"2026-09-19T20:11:44.140704Z","epoch_age_seconds":132252,"freshness":"FRESH","line1":"1 53294U 22086BE  26262.84148311 -.00000348  00000+0  92931-6 0  9994","line2":"2 53294  53.1593   9.6691 0000930  67.4784 292.6317 15.35400213230852","mean_motion":15.35400213,"eccentricity":9.3e-5,"inclination_deg":53.1593,"raan_deg":9.6691,"arg_perigee_deg":67.4784,"mean_anomaly_deg":292.6317,"bstar":9.2931e-7,"rev_number":23085,"period_min":93.786622393806,"perigee_km":459.09608852937,"apogee_km":460.3679321653,"semimajor_km":6837.8690103473,"source":"CELESTRAK","updated_at":"2026-09-20T09:00:40.222481Z"}}}